[[{"header":{"parameterUnit":"m.s-1","parameterCategory":1,"la1":30.2991,"la2":30.254,"lo1":-89.0895,"lo2":-89.0444,"dy":0.0017,"dx":0.0017,"nx":28,"ny":28,"refTime":"2023-08-22T09:00:00:Z","depth":0,"parameterNumber":2,"parameterNumberName":"U-component_of_WINDS"},"data":[0,0,0,0,0,0,0,0,0,0,0,0,0,0,0,0,0,0,0,0,0,0,0,0,0,0,0,0,0,0,0,0,0,0,0,0,0,0,0,0,0,0,0,0,0,0,0,0,0,0,0,0,0,0,0,0,0,0,3.2165,3.2167,0,3.2308,3.231,3.2311,3.2273,3.227,3.2267,3.2265,3.2413,3.242,3.2426,0,0,0,0,0,0,0,0,0,0,0,0,0,3.1861,3.1867,3.2165,3.2167,3.2168,3.2308,3.231,3.2312,3.2274,3.227,3.2267,3.2263,3.2411,3.2419,3.2427,0,0,0,0,0,0,0,0,0,0,0,0,0,3.1998,3.1869,3.2165,3.2166,3.2168,3.2307,3.231,3.2312,3.2274,3.227,3.2266,3.2262,3.2409,3.2418,3.2428,3.2575,0,0,3.2458,3.2463,0,0,0,0,0,0,0,0,3.199,3.2009,3.2164,3.2166,3.2168,3.2268,3.2257,3.24,3.2276,3.2234,3.2265,3.226,3.2369,3.2382,3.2418,3.2582,3.2589,3.2459,3.2465,3.247,3.2472,0,0,0,0,0,0,0,3.1981,3.2003,3.2221,3.2167,3.2169,3.2161,3.2175,3.2284,3.2324,3.2237,3.2235,3.2252,3.2369,3.2409,3.2421,3.2591,3.2459,3.2468,3.2474,3.2478,3.2884,3.2889,0,0,0,0,0,0,3.1969,3.1995,3.2217,3.2226,3.2067,3.217,3.2186,3.2241,3.2322,3.2331,3.2256,3.225,3.2394,3.241,3.2426,3.2605,3.247,3.2479,3.2485,3.288,3.2885,3.2891,0,0,0,0,0,0,3.1963,3.1989,3.2211,3.211,3.2137,3.2179,3.2241,3.2246,3.2285,3.2336,3.2343,3.2289,3.2391,3.2412,3.2539,3.2609,3.2483,3.2492,3.2874,3.2881,3.2888,3.2962,0,0,0,0,0,0,3.1954,3.1987,3.2043,3.2111,3.2143,3.2321,3.2245,3.2252,3.2302,3.2296,3.2369,3.2377,3.2389,3.2524,3.2549,3.2621,3.25,3.2868,3.2877,3.2886,3.2954,3.2971,3.2986,0,0,0,0,0,3.1944,3.2059,3.2046,3.2073,3.2213,3.2325,3.2343,3.2354,3.2308,3.2365,3.2398,3.2375,3.2598,3.2537,3.2565,3.2641,3.2863,3.2874,3.2885,3.2947,3.2968,3.2986,0,0,0,0,0,0,3.1998,3.2068,3.2054,3.2195,3.2254,3.2318,3.239,3.2376,3.245,3.2441,3.2452,3.2469,3.2598,3.2632,3.2564,3.2788,3.2724,3.2741,3.2761,3.2782,3.2798,3.2787,3.2508,0,0,0,0,0,3.2026,3.211,3.2167,3.2285,3.2315,3.2348,3.2397,3.24,3.2462,3.2487,3.2529,3.2591,3.2675,3.273,3.2811,3.2958,3.2974,3.3025,3.3041,3.3054,3.3068,3.315,3.3173,3.2926,3.2926,3.2926,0,0,3.2086,3.2134,3.2186,3.2297,3.2344,3.2431,3.2369,3.2464,3.2529,3.2502,3.2624,3.2657,3.2727,3.2865,3.2928,3.2897,3.314,3.3068,3.3078,3.3085,3.3164,3.3187,3.3208,3.2934,3.2932,3.2931,0,0,3.2239,3.2283,3.2387,3.2435,3.2506,3.2527,3.2552,3.2618,3.2639,3.2761,3.2743,3.2821,3.2965,3.3016,3.3061,3.3234,3.3216,3.326,3.3345,3.3424,3.3444,3.3461,3.3524,3.3546,3.3274,3.3275,3.3275,0,3.2304,3.2434,3.2443,3.254,3.2589,3.2568,3.2674,3.272,3.2814,3.2849,3.2813,3.2994,3.304,3.319,3.3232,3.3269,3.3298,3.3252,3.344,3.3458,3.3474,3.3534,3.3557,3.3279,3.3279,3.3278,3.3278,0,3.2511,3.2602,3.2677,3.2768,3.2826,3.2927,3.2952,3.301,3.3008,3.3033,3.3159,3.3213,3.3304,3.334,3.3339,3.349,3.3469,3.3437,3.3372,3.3502,3.3559,3.3582,3.3286,3.3285,3.3283,3.3282,0,0,3.2702,3.2796,3.2824,3.2865,3.2942,3.3013,3.3113,3.3202,3.3252,3.3317,3.3403,3.3526,3.3496,3.3547,3.3552,3.3622,3.3757,3.3581,3.3583,3.3613,3.3928,3.3952,3.3978,3.3745,3.375,3.3753,3.3922,0,3.2862,3.3038,3.3049,3.3209,3.3294,3.3275,3.3363,3.342,3.3446,3.3522,3.3552,3.3639,3.3593,3.3624,3.3692,3.3726,3.3821,3.3714,3.3826,3.383,3.3809,3.4008,3.4033,3.419,3.3944,3.3948,3.3951,0,3.3073,3.3144,3.3312,3.3378,3.3414,3.3492,3.3575,3.3647,3.3712,3.3727,3.3784,3.378,3.3884,3.3816,3.396,3.3887,3.3934,3.3958,3.3964,3.3975,3.3898,3.4025,3.424,3.4264,3.3985,3.3983,3.398,0,3.3196,3.3334,3.3453,3.3489,3.3568,3.3624,3.366,3.372,3.3773,3.3845,3.388,3.3964,3.401,3.4075,3.4094,3.4043,3.4239,3.4172,3.4254,3.4254,3.4297,3.4294,3.4523,3.4326,3.4326,3.4325,3.4325,0,3.3374,3.3478,3.351,3.3583,3.3699,3.3711,3.3826,3.3858,3.3913,3.3992,3.3981,3.4057,3.4077,3.4156,3.4172,3.429,3.431,3.4326,3.4329,3.4327,3.4325,3.4358,3.4348,3.4332,3.433,3.4329,3.4328,0,3.3531,3.3557,3.3685,3.375,3.3768,3.3851,3.3907,3.3978,3.4002,3.4104,3.4128,3.4167,3.426,3.4286,3.4397,3.4408,3.4547,3.4539,3.4524,3.4525,3.4606,3.4598,3.4864,3.49,3.4679,3.4681,3.4683,0,3.3643,3.3723,3.3796,3.3848,3.3886,3.3971,3.4024,3.404,3.4096,3.4177,3.4238,3.4329,3.4403,3.4553,3.4592,3.4678,3.4673,3.476,3.4686,3.4682,3.4675,3.467,3.4679,3.4775,3.4777,3.4779,3.478,0,3.384,3.3849,3.3926,3.4008,3.4073,3.4138,3.4201,3.4245,3.4269,3.4334,3.4428,3.4486,3.46,3.4691,3.4777,3.4815,3.4803,3.4804,3.4827,3.4827,3.4815,3.4823,3.4564,3.4798,3.4796,3.4795,3.4794,3.4793,3.3979,3.4048,3.4111,3.4198,3.4247,3.4306,3.4376,3.4409,3.4488,3.4581,3.4586,3.4689,3.4753,3.4868,3.491,3.4992,3.4966,3.5,3.5009,3.5017,3.5024,3.4802,3.5008,3.5007,3.5007,3.5007,3.5006,0,3.4175,3.4214,3.4294,3.4382,3.4451,3.4432,3.4501,3.456,3.465,3.4711,3.4784,3.4893,3.4982,3.5028,3.5116,3.5173,3.517,3.5196,3.5192,3.5201,3.5042,3.5013,3.5197,3.5197,3.5197,3.5197,3.5197,3.5197,3.4285,3.4403,3.4419,3.4561,3.46,3.47,3.4741,3.4796,3.4844,3.4966,3.504,3.5069,3.5124,3.5217,3.5298,3.5309,3.5343,3.5372,3.5381,3.5232,3.5212,3.5194,3.5166,3.5379,3.538,3.5533,3.5534,3.5535]},{"header":{"parameterUnit":"m.s-1","parameterCategory":1,"la1":30.2991,"la2":30.254,"lo1":-89.0895,"lo2":-89.0444,"dy":0.0017,"dx":0.0017,"nx":28,"ny":28,"refTime":"2023-08-22T09:00:00:Z","depth":0,"parameterNumber":3,"parameterNumberName":"V-component_of_WINDS"},"data":[0,0,0,0,0,0,0,0,0,0,0,0,0,0,0,0,0,0,0,0,0,0,0,0,0,0,0,0,0,0,0,0,0,0,0,0,0,0,0,0,0,0,0,0,0,0,0,0,0,0,0,0,0,0,0,0,0,0,-1.2045,-1.2046,0,-1.2129,-1.213,-1.2131,-1.2163,-1.2162,-1.2162,-1.2162,-1.2248,-1.225,-1.2253,0,0,0,0,0,0,0,0,0,0,0,0,0,-1.1912,-1.1915,-1.2045,-1.2046,-1.2047,-1.2129,-1.213,-1.2131,-1.2163,-1.2162,-1.2162,-1.2162,-1.2247,-1.225,-1.2253,0,0,0,0,0,0,0,0,0,0,0,0,0,-1.198,-1.1915,-1.2044,-1.2072,-1.2076,-1.2128,-1.213,-1.2131,-1.2163,-1.2162,-1.2162,-1.2162,-1.2246,-1.2249,-1.2253,-1.2284,0,0,-1.2265,-1.2266,0,0,0,0,0,0,0,0,-1.1976,-1.1985,-1.2067,-1.2071,-1.2074,-1.2135,-1.2115,-1.2182,-1.2163,-1.213,-1.2162,-1.2161,-1.221,-1.2217,-1.2234,-1.2288,-1.2292,-1.2265,-1.2267,-1.2269,-1.227,0,0,0,0,0,0,0,-1.1972,-1.1982,-1.2078,-1.2068,-1.2073,-1.2081,-1.209,-1.2128,-1.2171,-1.2132,-1.2135,-1.2145,-1.2212,-1.223,-1.2236,-1.2293,-1.2265,-1.2268,-1.2271,-1.2272,-1.2379,-1.2379,0,0,0,0,0,0,-1.1962,-1.1978,-1.2075,-1.208,-1.2024,-1.2084,-1.2094,-1.2116,-1.2171,-1.2179,-1.2145,-1.2146,-1.2224,-1.2231,-1.2239,-1.228,-1.2269,-1.2273,-1.2275,-1.2378,-1.2379,-1.2379,0,0,0,0,0,0,-1.1959,-1.1971,-1.2072,-1.203,-1.2043,-1.2086,-1.2111,-1.2118,-1.2135,-1.218,-1.2188,-1.2155,-1.2224,-1.2234,-1.2273,-1.2283,-1.2274,-1.2278,-1.2377,-1.2378,-1.2379,-1.236,0,0,0,0,0,0,-1.1955,-1.1969,-1.1981,-1.203,-1.2045,-1.2104,-1.2111,-1.212,-1.2142,-1.2144,-1.2192,-1.2199,-1.2224,-1.2267,-1.2277,-1.2288,-1.2281,-1.2377,-1.2378,-1.2379,-1.236,-1.236,-1.2361,0,0,0,0,0,-1.1951,-1.1972,-1.1982,-1.1993,-1.2061,-1.2105,-1.2113,-1.2142,-1.2142,-1.2155,-1.2184,-1.2198,-1.228,-1.2271,-1.2282,-1.2295,-1.2376,-1.2378,-1.2379,-1.236,-1.236,-1.2361,0,0,0,0,0,0,-1.1923,-1.1979,-1.199,-1.2028,-1.2062,-1.211,-1.2126,-1.2141,-1.2175,-1.2175,-1.2209,-1.222,-1.2256,-1.228,-1.2268,-1.2328,-1.2329,-1.2333,-1.2311,-1.2312,-1.2312,-1.2306,-1.2284,0,0,0,0,0,-1.1922,-1.1953,-1.2,-1.2029,-1.2045,-1.2083,-1.2103,-1.2122,-1.2158,-1.2172,-1.2204,-1.2238,-1.2272,-1.2293,-1.2327,-1.2364,-1.2375,-1.2378,-1.2378,-1.2378,-1.2381,-1.2403,-1.2406,-1.2384,-1.2384,-1.2384,0,0,-1.1919,-1.1953,-1.197,-1.2024,-1.2052,-1.2083,-1.2094,-1.2126,-1.215,-1.2177,-1.2216,-1.224,-1.2281,-1.232,-1.2338,-1.234,-1.239,-1.238,-1.238,-1.2382,-1.2405,-1.2407,-1.2409,-1.2384,-1.2384,-1.2384,0,0,-1.193,-1.1959,-1.1986,-1.2015,-1.2057,-1.2082,-1.2089,-1.2136,-1.2153,-1.2193,-1.2214,-1.2243,-1.23,-1.2329,-1.235,-1.2373,-1.2388,-1.2384,-1.2384,-1.2406,-1.2408,-1.2409,-1.2418,-1.2421,-1.2386,-1.2386,-1.2386,0,-1.1921,-1.1968,-1.1999,-1.203,-1.2054,-1.208,-1.2109,-1.2134,-1.2185,-1.2201,-1.2203,-1.2276,-1.2305,-1.2351,-1.2357,-1.2374,-1.2383,-1.2378,-1.2405,-1.2407,-1.2409,-1.2418,-1.2421,-1.2385,-1.2385,-1.2385,-1.2385,0,-1.1956,-1.1988,-1.2006,-1.2055,-1.2081,-1.211,-1.2146,-1.2168,-1.2185,-1.2211,-1.2252,-1.2288,-1.233,-1.2342,-1.2359,-1.2391,-1.2391,-1.2398,-1.24,-1.241,-1.2419,-1.2422,-1.2384,-1.2384,-1.2385,-1.2385,0,0,-1.1951,-1.2017,-1.2023,-1.2046,-1.2096,-1.2122,-1.2153,-1.2195,-1.2213,-1.2248,-1.2276,-1.2325,-1.2332,-1.2357,-1.2378,-1.2396,-1.2413,-1.2402,-1.2403,-1.2403,-1.2452,-1.2446,-1.2449,-1.2423,-1.2424,-1.2425,-1.2449,0,-1.1968,-1.2026,-1.2055,-1.21,-1.2131,-1.2157,-1.2185,-1.2218,-1.2243,-1.2273,-1.2301,-1.2335,-1.2342,-1.2357,-1.2377,-1.2407,-1.2424,-1.2406,-1.245,-1.2451,-1.2439,-1.2454,-1.2448,-1.2469,-1.2452,-1.2453,-1.2453,0,-1.1996,-1.2031,-1.2079,-1.2126,-1.214,-1.2165,-1.2205,-1.2234,-1.2273,-1.229,-1.2318,-1.2339,-1.2374,-1.2373,-1.2422,-1.241,-1.243,-1.2447,-1.2449,-1.2454,-1.2452,-1.246,-1.2476,-1.2479,-1.2459,-1.2458,-1.2458,0,-1.1988,-1.2047,-1.2084,-1.2103,-1.2159,-1.2175,-1.2199,-1.2238,-1.2261,-1.2297,-1.2313,-1.2352,-1.2373,-1.2404,-1.2434,-1.2431,-1.2481,-1.2483,-1.2496,-1.2495,-1.2505,-1.2504,-1.2525,-1.2518,-1.2518,-1.2518,-1.2517,0,-1.2005,-1.2033,-1.2082,-1.2104,-1.2138,-1.2171,-1.2203,-1.2229,-1.2263,-1.2292,-1.2317,-1.2343,-1.2382,-1.2414,-1.2438,-1.2475,-1.2485,-1.25,-1.2506,-1.2498,-1.2496,-1.2511,-1.251,-1.2518,-1.2518,-1.2518,-1.2518,0,-1.2001,-1.2035,-1.2077,-1.2126,-1.2139,-1.2162,-1.2204,-1.2227,-1.2254,-1.229,-1.23,-1.2342,-1.238,-1.2414,-1.2465,-1.2481,-1.252,-1.2527,-1.2507,-1.251,-1.2522,-1.252,-1.2553,-1.2559,-1.2547,-1.2547,-1.2547,0,-1.201,-1.2033,-1.2085,-1.2106,-1.2129,-1.2162,-1.2187,-1.2221,-1.2245,-1.2292,-1.231,-1.235,-1.2384,-1.2444,-1.2479,-1.2519,-1.2527,-1.2536,-1.2533,-1.2525,-1.2528,-1.2526,-1.2529,-1.2536,-1.2536,-1.2536,-1.2536,0,-1.2021,-1.2037,-1.2071,-1.2111,-1.2139,-1.2172,-1.2206,-1.2222,-1.2262,-1.2288,-1.2328,-1.2355,-1.2407,-1.2447,-1.249,-1.2515,-1.2533,-1.2537,-1.2542,-1.2534,-1.2521,-1.2529,-1.2507,-1.2536,-1.2536,-1.2536,-1.2536,-1.2536,-1.2025,-1.2046,-1.2087,-1.2124,-1.2153,-1.2184,-1.2209,-1.2239,-1.2272,-1.2318,-1.2336,-1.2377,-1.2416,-1.2476,-1.2502,-1.2534,-1.2537,-1.2545,-1.2547,-1.2548,-1.2547,-1.2516,-1.2542,-1.2542,-1.2542,-1.2543,-1.2543,0,-1.2038,-1.2065,-1.2099,-1.2146,-1.2175,-1.2189,-1.2228,-1.2252,-1.2287,-1.2323,-1.2356,-1.2402,-1.2441,-1.248,-1.2521,-1.254,-1.2549,-1.255,-1.2549,-1.2555,-1.2542,-1.2533,-1.2542,-1.2542,-1.2542,-1.2542,-1.2542,-1.2542,-1.2048,-1.2086,-1.2107,-1.216,-1.2187,-1.2227,-1.2248,-1.2277,-1.2306,-1.2356,-1.2389,-1.2414,-1.2451,-1.2496,-1.2533,-1.2543,-1.2557,-1.2556,-1.2568,-1.2556,-1.2555,-1.2555,-1.2547,-1.2559,-1.2559,-1.2579,-1.2579,-1.2579]}]]